Brooksville, FL

9:36 AM EDT on April 23, 2017 (GMT -0400)
Hernando County

Weather History for KBKV - March, 2013

Change the Weather History Date:

Wednesday, March 27, 2013

  Actual Average Record
Temperature  
Mean Temperature 44 °F -  
Max Temperature 55 °F 76 °F 90 °F (2011)
Min Temperature 34 °F 51 °F 30 °F (2006)
Degree Days  
Heating Degree Days 20    
Moisture  
Dew Point 31 °F    
Average Humidity 61    
Maximum Humidity 89    
Minimum Humidity 34    
Precipitation  
Precipitation 0.00 in - - ()
Sea Level Pressure  
Sea Level Pressure 30.30 in    
Wind  
Wind Speed 5 mph (NNW)    
Max Wind Speed 15 mph    
Max Gust Speed 21 mph    
Visibility 10 miles    
Events      
Averages and records for this station are not official NWS values.
T = Trace of Precipitation, MM = Missing Value Source: NWS Daily Summary

Daily Weather History Graph

Daily Weather History Graph

Search for Another Location

Airport or City:

Trip Planner

Search our weather history database for the weather conditions in past years. The results will help you decide how hot, cold, wet, or windy it might be!

Date:

Astronomy

Mar. 27, 2013 Rise Set
Actual Time 7:25 AM EDT 7:45 PM EDT
Civil Twilight 7:01 AM EDT 8:08 PM EDT
Nautical Twilight 6:34 AM EDT 8:36 PM EDT
Astronomical Twilight 6:06 AM EDT 9:04 PM EDT
Moon 8:20 PM EDT (3/27) 7:19 AM EDT (3/27)
Length of Visible Light 13h 07m
Length of Day
12h 19m
Full, 100% of the Moon is Illuminated
Mar 27
Full
Apr 3
Last Quarter
Apr 10
New
Apr 18
First Quarter
Apr 25
Full

Hourly Weather History & Observations

Time (EDT) Temp. Windchill Dew Point Humidity Pressure Visibility Wind Dir Wind Speed Gust Speed Precip Events Conditions
12:53 AM 39.9 °F 37.8 °F 34.0 °F 79% 30.28 in 10.0 mi North 3.5 mph - N/A   Clear
1:53 AM 37.0 °F - 34.0 °F 89% 30.27 in 10.0 mi Calm Calm - N/A   Clear
2:53 AM 35.1 °F - 32.0 °F 89% 30.27 in 10.0 mi Calm Calm - N/A   Clear
3:53 AM 34.0 °F - 30.9 °F 89% 30.26 in 10.0 mi Calm Calm - N/A   Clear
4:53 AM 37.0 °F - 30.9 °F 79% 30.27 in 10.0 mi Calm Calm - N/A   Clear
5:53 AM 37.9 °F 33.5 °F 28.9 °F 70% 30.27 in 10.0 mi NNE 5.8 mph - N/A   Clear
6:53 AM 37.0 °F 33.3 °F 28.9 °F 73% 30.30 in 10.0 mi North 4.6 mph - N/A   Clear
7:53 AM 37.0 °F 33.3 °F 28.9 °F 73% 30.32 in 10.0 mi NNE 4.6 mph - N/A   Clear
8:53 AM 42.1 °F 36.6 °F 30.0 °F 62% 30.34 in 10.0 mi NNE 9.2 mph - N/A   Clear
9:53 AM 46.9 °F - 27.0 °F 46% 30.35 in 10.0 mi NNE 9.2 mph - N/A   Clear
10:53 AM 51.1 °F - 26.1 °F 38% 30.35 in 10.0 mi North 6.9 mph - N/A   Clear
11:53 AM 52.0 °F - 25.0 °F 35% 30.35 in 10.0 mi NW 8.1 mph - N/A   Unknown
12:53 PM 55.0 °F - 27.0 °F 34% 30.34 in 10.0 mi West 8.1 mph 16.1 mph N/A   Clear
1:53 PM 55.0 °F - 27.0 °F 34% 30.32 in 10.0 mi WNW 15.0 mph 20.7 mph N/A   Clear
2:53 PM 54.0 °F - 27.0 °F 35% 30.30 in 10.0 mi West 11.5 mph 19.6 mph N/A   Clear
3:53 PM 55.0 °F - 30.9 °F 40% 30.28 in 10.0 mi WNW 11.5 mph 20.7 mph N/A   Clear
4:53 PM 55.0 °F - 33.1 °F 43% 30.27 in 10.0 mi WNW 12.7 mph - N/A   Clear
5:53 PM 54.0 °F - 34.0 °F 47% 30.27 in 10.0 mi NW 11.5 mph - N/A   Clear
6:53 PM 53.1 °F - 35.1 °F 50% 30.27 in 10.0 mi WNW 9.2 mph - N/A   Clear
7:53 PM 50.0 °F - 37.0 °F 61% 30.27 in 10.0 mi WNW 6.9 mph - N/A   Clear
8:53 PM 48.0 °F - 37.0 °F 66% 30.28 in 10.0 mi NW 4.6 mph - N/A   Clear
9:53 PM 46.0 °F 43.9 °F 37.0 °F 71% 30.29 in 10.0 mi NNW 4.6 mph - N/A   Clear
10:53 PM 43.0 °F 41.3 °F 37.0 °F 80% 30.30 in 10.0 mi NNW 3.5 mph - N/A   Clear
11:53 PM 41.0 °F - 37.0 °F 86% 30.30 in 10.0 mi Calm Calm - N/A   Clear